AFR926 LFPG-FOOL

Flight info

Callsign AFR926
Flight time N/A
Altitude 35000
Route ERIXU DCT ETAMO DCT ADEKA DCT MOKDI DCT MEN DCT AMLIR DCT FJR DCT DIVKO DCT JUSQO DCT FIRRA DCT SUXER DCT KAMER UM998 CSO/N0470F370 UA605 RIMEL UR985 IMN M999 SEB M214 GARIN DCT ILDOR UM214 PODGA DCT IKREV/N0476F380 UQ589 ISDET DCT ASSAM UH455 KEMOX DCT ETNOM UH455 ARASI ARASI2L
Aircraft B772/H-SDE2E3FGHIJ5LORVWXY/LB1D1

Departure

Time 2026-05-04 17:55
Airport Charles de Gaulle International Airport (LFPG)

Arrival

Time N/A
Airport Libreville Leon M'ba International Airport (FOOL)
Time Latitude Longitude Altitude Speed Heading
2026-05-04 16:39 49.00394 2.58996 359 ft 0 kts 86°
2026-05-04 17:40 49.00393 2.58970 362 ft 4 kts 90°
2026-05-04 17:40 49.00395 2.58929 359 ft 4 kts 101°
2026-05-04 17:40 49.00402 2.58890 363 ft 4 kts 117°
2026-05-04 17:40 49.00417 2.58860 367 ft 4 kts 157°
2026-05-04 17:41 49.00426 2.58856 366 ft 0 kts 175°
2026-05-04 17:46 49.00391 2.58860 366 ft 10 kts 175°
2026-05-04 17:47 49.00294 2.58872 366 ft 17 kts 175°
2026-05-04 17:47 49.00152 2.58888 366 ft 11 kts 175°
2026-05-04 17:47 49.00057 2.58888 364 ft 8 kts 207°
2026-05-04 17:47 49.00034 2.58779 359 ft 15 kts 263°
2026-05-04 17:48 49.00025 2.58591 359 ft 21 kts 266°
2026-05-04 17:48 49.00014 2.58337 364 ft 27 kts 265°
2026-05-04 17:48 48.99999 2.58070 365 ft 23 kts 265°
2026-05-04 17:48 48.99984 2.57802 364 ft 28 kts 265°
2026-05-04 17:49 48.99968 2.57503 359 ft 28 kts 265°
2026-05-04 17:49 48.99958 2.57315 364 ft 16 kts 265°
2026-05-04 17:49 48.99949 2.57146 364 ft 16 kts 265°
2026-05-04 17:49 48.99940 2.56976 361 ft 16 kts 265°
2026-05-04 17:50 48.99930 2.56805 366 ft 16 kts 265°
2026-05-04 17:50 48.99921 2.56636 360 ft 16 kts 265°
2026-05-04 17:50 48.99913 2.56466 364 ft 16 kts 265°
2026-05-04 17:50 48.99904 2.56295 362 ft 16 kts 266°
2026-05-04 17:51 48.99895 2.56126 359 ft 16 kts 265°
2026-05-04 17:51 48.99847 2.56022 366 ft 13 kts 191°
2026-05-04 17:51 48.99760 2.56027 363 ft 13 kts 175°
2026-05-04 17:51 48.99731 2.56030 362 ft 0 kts 175°
2026-05-04 17:53 48.99719 2.56032 360 ft 4 kts 175°
2026-05-04 17:53 48.99659 2.56039 365 ft 14 kts 175°
2026-05-04 17:53 48.99618 2.56076 368 ft 8 kts 110°
2026-05-04 17:54 48.99615 2.56141 362 ft 0 kts 85°
2026-05-04 17:54 48.99615 2.56146 362 ft 0 kts 85°
2026-05-04 17:54 48.99618 2.56198 363 ft 21 kts 85°
2026-05-04 17:54 48.99654 2.56824 364 ft 98 kts 85°
2026-05-04 17:55 48.99727 2.58220 366 ft 162 kts 87°
2026-05-04 17:55 48.99795 2.60028 922 ft 173 kts 86°
2026-05-04 17:55 48.99880 2.61848 1803 ft 170 kts 84°
2026-05-04 17:55 48.99985 2.63723 2300 ft 190 kts 84°
2026-05-04 17:56 49.00063 2.65116 2482 ft 208 kts 84°
2026-05-04 17:56 49.00196 2.67442 2705 ft 234 kts 84°
2026-05-04 17:56 49.00413 2.70926 3361 ft 253 kts 85°
2026-05-04 17:56 49.00510 2.72722 3785 ft 260 kts 85°
2026-05-04 17:57 49.00648 2.75472 4582 ft 261 kts 85°
2026-05-04 17:57 49.00759 2.78222 5304 ft 261 kts 92°
2026-05-04 17:57 49.00501 2.81014 5739 ft 271 kts 102°
2026-05-04 17:57 49.00114 2.83834 6458 ft 272 kts 101°
2026-05-04 17:58 48.99663 2.87579 7451 ft 271 kts 100°
2026-05-04 17:58 48.99439 2.89488 7951 ft 271 kts 100°
2026-05-04 17:58 48.99106 2.92346 8541 ft 276 kts 100°
2026-05-04 17:58 48.98774 2.95216 9119 ft 281 kts 100°
2026-05-04 17:59 48.98262 2.98074 9619 ft 284 kts 118°
2026-05-04 17:59 48.96930 3.00287 10092 ft 287 kts 149°
2026-05-04 17:59 48.92844 3.00997 10432 ft 325 kts 197°
2026-05-04 18:00 48.90760 2.99422 10566 ft 348 kts 216°
2026-05-04 18:00 48.89079 2.96699 10992 ft 358 kts 236°
2026-05-04 18:00 48.88054 2.93241 11507 ft 362 kts 256°
2026-05-04 18:00 48.87567 2.89460 12002 ft 371 kts 261°
2026-05-04 18:01 48.87176 2.85540 12767 ft 378 kts 261°
2026-05-04 18:01 48.86745 2.81585 13708 ft 381 kts 259°
2026-05-04 18:01 48.86236 2.77618 14514 ft 384 kts 258°
2026-05-04 18:02 48.85053 2.69571 16174 ft 388 kts 256°
2026-05-04 18:02 48.84461 2.65676 16929 ft 391 kts 256°
2026-05-04 18:02 48.83717 2.61731 17475 ft 389 kts 245°
2026-05-04 18:02 48.82262 2.58283 17799 ft 393 kts 232°
2026-05-04 18:03 48.80574 2.54956 18365 ft 399 kts 233°
2026-05-04 18:03 48.78926 2.51560 19063 ft 399 kts 234°
2026-05-04 18:03 48.77308 2.48136 19733 ft 401 kts 234°
2026-05-04 18:03 48.75707 2.44720 20326 ft 404 kts 234°
2026-05-04 18:04 48.74050 2.41192 20881 ft 406 kts 233°
2026-05-04 18:04 48.72192 2.38043 21248 ft 411 kts 218°
2026-05-04 18:04 48.67233 2.33696 22073 ft 417 kts 210°
2026-05-04 18:05 48.64715 2.31495 22691 ft 418 kts 210°
2026-05-04 18:05 48.62203 2.29251 23347 ft 420 kts 211°
2026-05-04 18:05 48.59693 2.26990 23886 ft 421 kts 211°
2026-05-04 18:05 48.57172 2.24720 24392 ft 423 kts 211°
2026-05-04 18:06 48.52159 2.20367 25262 ft 423 kts 203°
2026-05-04 18:06 48.49221 2.19239 25551 ft 431 kts 185°
2026-05-04 18:06 48.46225 2.19390 25956 ft 432 kts 176°
2026-05-04 18:07 48.43211 2.19736 26373 ft 435 kts 177°
2026-05-04 18:07 48.40186 2.20028 26869 ft 436 kts 178°
2026-05-04 18:07 48.37178 2.20287 27425 ft 436 kts 179°
2026-05-04 18:07 48.34146 2.20535 27912 ft 437 kts 179°
2026-05-04 18:08 48.31134 2.20778 28336 ft 440 kts 179°
2026-05-04 18:08 48.28034 2.21065 28746 ft 443 kts 176°
2026-05-04 18:08 48.24962 2.21686 29176 ft 447 kts 173°
2026-05-04 18:08 48.21932 2.22504 29627 ft 449 kts 172°
2026-05-04 18:09 48.15763 2.24183 30392 ft 451 kts 173°
2026-05-04 18:09 48.09551 2.25705 31078 ft 452 kts 173°
2026-05-04 18:10 48.06445 2.26341 31524 ft 449 kts 177°
2026-05-04 18:10 48.03343 2.26648 32029 ft 444 kts 180°
2026-05-04 18:10 48.00264 2.26796 32552 ft 440 kts 181°
2026-05-04 18:10 47.97213 2.26899 33074 ft 437 kts 181°
2026-05-04 18:11 47.94184 2.27011 33606 ft 434 kts 181°
2026-05-04 18:11 47.91177 2.27146 34057 ft 432 kts 181°
2026-05-04 18:11 47.88209 2.27301 34338 ft 433 kts 180°
2026-05-04 18:11 47.85189 2.27477 34547 ft 435 kts 180°
2026-05-04 18:12 47.82156 2.27663 34799 ft 437 kts 180°
2026-05-04 18:12 47.79101 2.27856 34859 ft 442 kts 180°
2026-05-04 18:12 47.72937 2.28251 34991 ft 445 kts 180°
2026-05-04 18:13 47.69840 2.28449 35254 ft 444 kts 180°
2026-05-04 18:13 47.66751 2.28646 35551 ft 444 kts 180°
2026-05-04 18:13 47.60582 2.29038 36088 ft 444 kts 180°
2026-05-04 18:14 47.57488 2.29232 36313 ft 445 kts 180°
2026-05-04 18:14 47.54386 2.29427 36548 ft 446 kts 180°
2026-05-04 18:14 47.51285 2.29622 36784 ft 447 kts 180°
2026-05-04 18:15 47.45058 2.30013 37219 ft 448 kts 180°
2026-05-04 18:15 47.38825 2.30404 37201 ft 449 kts 180°
2026-05-04 18:16 47.32631 2.30793 37191 ft 442 kts 180°
2026-05-04 18:16 47.26497 2.31175 37199 ft 443 kts 180°
2026-05-04 18:17 47.17282 2.31747 37194 ft 444 kts 180°
2026-05-04 18:18 47.08011 2.32321 37195 ft 445 kts 180°
2026-05-04 18:18 47.01829 2.32704 37110 ft 442 kts 180°
2026-05-04 18:18 46.98814 2.32890 36804 ft 441 kts 180°
2026-05-04 18:19 46.92638 2.33270 36094 ft 440 kts 180°
2026-05-04 18:19 46.89581 2.33458 35761 ft 438 kts 180°
2026-05-04 18:19 46.86552 2.33956 35414 ft 440 kts 171°
2026-05-04 18:20 46.83606 2.35189 35089 ft 442 kts 163°
2026-05-04 18:20 46.80781 2.36924 34978 ft 441 kts 158°
2026-05-04 18:20 46.75540 2.41711 34924 ft 448 kts 151°
2026-05-04 18:21 46.70331 2.46766 34905 ft 451 kts 151°
2026-05-04 18:21 46.65086 2.51797 34919 ft 455 kts 151°
2026-05-04 18:22 46.59773 2.56840 34912 ft 456 kts 151°
2026-05-04 18:22 46.54456 2.61864 34910 ft 456 kts 151°
2026-05-04 18:23 46.49173 2.66846 34912 ft 455 kts 152°
2026-05-04 18:23 46.43870 2.71834 34909 ft 453 kts 152°
2026-05-04 18:24 46.38588 2.76792 34912 ft 451 kts 152°
2026-05-04 18:24 46.33328 2.81716 34892 ft 450 kts 152°
2026-05-04 18:25 46.28065 2.86631 34917 ft 451 kts 152°
2026-05-04 18:25 46.22787 2.91548 34922 ft 452 kts 152°
2026-05-04 18:26 46.17482 2.96481 34926 ft 454 kts 152°
2026-05-04 18:26 46.12165 3.01414 34920 ft 455 kts 152°
2026-05-04 18:27 46.06835 3.06349 34926 ft 455 kts 152°
2026-05-04 18:27 46.01500 3.11277 34934 ft 455 kts 152°